Wind_Speed
56 58 62 67 67 65 61 51 50 56 56 55 56 54 54 54 51 50 48 47 47 48 49 48 47 44 42 40 39 39 38 38 37 36 36 34 33 32 32 34 34 31 29 27 25 26 28 28 28 33 37 34 31 26 21 21 19 18 18 16 13 12 10 9 9 10 9 7 5 6 6 6 5 6 6 7 6 5 5 4 3 4 3 2 2 2 3 4
55 57 58 61 66 67 66 55 45 52 58 54 55 56 54 56 52 49 50 47 46 46 48 49 48 45 42 39 39 39 38 38 39 38 35 33 33 33 33 35 34 32 30 28 26 27 28 28 27 30 34 35 32 27 21 20 20 17 17 16 14 12 10 9 11 11 11 8 6 7 7 6 5 6 7 6 6 5 4 4 3 3 2 2 2 3 4 5
52 56 56 55 60 67 70 63 47 48 58 55 54 55 54 54 52 50 49 47 46 47 48 49 48 46 42 39 38 38 38 38 40 40 36 34 34 34 34 36 36 33 31 29 26 26 27 27 27 29 32 35 33 30 24 19 17 17 17 15 15 14 11 11 12 12 12 10 8 8 8 7 5 7 8 6 7 6 4 4 3 2 2 2 2 3 4 6
47 51 54 52 53 61 70 69 54 47 54 58 54 54 54 53 51 51 50 48 46 46 48 48 48 46 43 40 37 37 36 37 42 41 36 35 34 34 35 36 36 34 31 30 27 25 25 25 26 28 32 34 34 33 29 23 16 13 16 16 16 16 14 14 14 15 15 13 11 10 10 7 6 9 8 8 8 5 4 5 5 4 5 5 5 4 4 6
45 47 48 48 47 55 67 71 62 49 49 57 56 53 53 51 51 50 50 50 47 46 48 49 48 47 44 41 37 36 35 38 43 41 35 35 34 34 36 37 38 35 32 31 28 26 24 24 25 29 32 33 34 34 34 32 22 13 15 18 18 18 16 16 17 17 17 16 14 12 11 9 9 10 9 9 7 3 5 7 8 8 8 8 8 8 7 7
43 46 45 44 43 49 62 68 66 57 48 52 57 55 51 48 48 47 49 51 48 46 48 49 49 48 45 41 38 37 38 39 41 40 38 35 34 35 36 38 38 35 33 31 30 27 26 25 26 28 31 32 33 34 35 35 28 18 17 18 18 19 18 17 18 18 18 17 16 14 13 12 11 10 10 9 7 5 6 9 10 11 10 10 10 10 9 9
41 44 44 43 41 44 54 62 65 62 52 49 54 56 51 49 48 46 47 50 49 47 49 50 48 48 47 43 40 39 42 40 35 37 39 36 34 36 36 38 38 37 35 32 31 29 28 27 28 28 28 30 32 33 33 32 29 23 20 19 18 20 20 19 19 18 19 18 17 16 15 14 13 12 12 9 7 7 9 9 11 11 10 10 10 9 11 12
40 42 43 42 40 40 48 56 60 63 58 49 51 56 53 51 51 47 43 47 50 49 49 52 50 49 48 45 44 44 45 42 35 33 37 37 35 36 37 38 39 38 36 34 32 30 29 30 30 30 28 28 31 32 31 28 28 26 24 21 19 20 20 20 20 19 20 19 18 18 17 15 14 15 13 9 7 9 11 11 12 12 10 10 9 10 11 13
39 41 40 40 38 37 43 48 54 63 62 50 46 54 54 49 51 50 46 46 49 49 48 52 52 50 49 47 46 48 47 43 38 32 32 37 37 36 37 39 40 38 36 35 32 30 30 30 30 30 29 28 29 31 31 29 31 31 29 25 20 20 21 20 21 21 21 20 20 20 18 17 16 17 15 11 10 12 13 13 13 12 11 10 10 10 10 11
37 37 36 36 36 36 39 43 49 59 65 53 41 51 55 48 48 50 50 49 48 49 47 50 52 50 51 50 48 50 47 41 40 36 30 33 37 36 37 39 39 37 36 34 32 31 30 30 29 28 28 28 28 28 30 31 32 31 32 31 25 21 21 22 22 22 22 21 21 21 20 18 19 19 16 12 12 14 14 14 13 12 12 11 11 11 11 11
34 34 33 32 33 34 36 40 43 51 65 61 43 49 56 51 51 48 50 52 48 49 48 48 52 52 51 53 53 51 46 40 40 39 32 30 35 37 37 38 38 36 35 34 31 30 30 30 29 27 27 28 28 26 26 28 28 29 29 31 31 27 23 22 23 23 23 22 22 22 22 20 21 21 16 12 13 14 14 14 13 13 12 12 12 12 12 12
32 33 32 30 31 32 32 37 41 47 63 68 49 49 56 55 56 45 48 57 51 51 50 47 52 53 51 52 54 50 43 42 40 40 36 31 33 37 37 37 37 36 33 31 31 30 29 30 30 28 27 26 25 24 23 24 24 27 26 27 32 33 27 23 23 24 23 23 23 23 23 24 24 21 16 12 13 14 15 15 14 14 13 13 14 14 14 14
32 32 31 29 29 29 29 32 38 44 59 69 55 48 54 54 55 42 47 62 55 52 52 47 53 54 52 52 53 49 43 42 40 40 39 33 32 35 38 39 38 36 32 31 31 30 30 30 30 28 27 24 22 21 21 21 21 24 26 27 28 32 32 26 23 24 24 24 24 22 24 26 25 20 16 14 13 15 16 16 15 15 15 14 14 15 15 15
33 32 30 28 28 27 28 28 33 40 53 68 60 50 50 50 53 41 41 57 55 53 53 49 54 56 54 53 52 50 45 42 40 40 41 38 35 35 39 41 40 37 34 33 32 30 30 30 30 29 27 25 23 22 20 19 20 21 25 28 28 31 34 28 23 24 25 25 25 23 26 29 24 19 18 17 15 16 17 17 17 16 16 16 15 16 16 16
33 32 30 28 27 26 27 26 28 35 46 63 65 55 47 47 56 44 36 50 53 53 55 51 55 58 56 54 52 51 47 43 42 41 40 40 39 37 39 41 40 38 35 34 33 32 31 31 31 30 28 26 24 24 21 21 22 22 23 25 27 32 36 30 23 24 24 23 25 23 25 29 25 20 21 20 17 18 17 18 18 18 18 18 17 17 16 16
31 31 30 28 27 25 26 25 27 31 38 55 65 61 49 46 55 45 35 49 54 52 55 55 56 58 57 56 53 51 50 46 44 42 40 40 39 37 37 39 41 40 38 36 35 34 33 33 33 32 30 28 27 25 22 23 25 25 25 24 25 29 34 31 23 23 23 22 25 25 25 28 25 21 22 22 20 19 19 19 19 19 19 19 19 19 18 18
31 30 30 29 28 27 26 26 27 29 34 45 59 62 52 46 52 47 35 45 55 54 55 55 57 57 52 53 54 51 52 49 46 44 43 42 40 38 36 37 41 42 40 39 38 38 37 37 36 34 33 32 30 27 23 25 27 27 27 27 26 28 31 29 21 20 23 23 25 26 28 30 27 22 22 23 22 21 20 20 20 20 20 20 20 20 20 21
31 31 31 29 29 28 26 27 27 28 32 37 49 61 57 47 49 50 38 38 49 52 53 56 58 55 46 50 56 53 53 51 47 46 44 42 40 39 37 35 39 41 42 43 42 42 41 40 39 36 36 35 33 31 28 27 28 29 29 30 30 30 32 29 19 15 19 22 24 26 30 32 29 24 23 23 22 22 22 21 21 21 21 21 22 22 22 23
31 31 31 30 30 29 27 28 27 29 31 33 42 57 60 48 42 48 43 41 53 57 56 60 60 57 55 59 58 50 51 51 47 45 43 43 41 39 38 36 37 40 43 45 46 45 44 42 41 40 40 39 36 34 31 28 29 30 29 30 31 30 33 32 23 16 16 19 22 25 28 32 32 28 25 23 22 22 22 22 21 21 22 22 23 23 23 24
31 32 32 32 31 30 29 29 29 30 32 34 39 50 60 54 42 46 45 42 59 65 59 62 62 60 63 64 58 50 50 49 47 46 42 42 41 38 37 35 36 39 42 46 47 46 44 44 45 44 42 39 34 30 29 28 29 30 27 26 28 30 33 32 24 19 18 20 22 23 25 31 33 31 28 26 25 24 23 22 22 22 22 22 22 23 23 24
31 32 34 33 33 32 31 31 30 31 33 36 40 47 60 60 47 48 46 34 51 66 60 60 60 59 62 61 60 57 52 49 47 46 44 40 41 39 38 35 35 38 41 44 46 44 43 45 46 45 40 34 29 28 28 28 29 31 28 24 22 26 33 31 24 19 18 20 23 23 25 31 34 33 31 30 29 27 24 23 22 22 21 21 22 22 23 23
32 33 35 35 35 34 33 33 32 33 36 37 41 45 55 60 47 43 43 31 42 63 60 56 56 56 58 58 58 56 53 52 48 47 47 43 41 41 40 38 34 36 39 40 43 43 42 44 44 40 35 29 27 27 26 26 29 30 30 28 23 23 27 25 19 18 19 21 22 23 27 31 34 35 35 33 33 31 28 26 23 22 22 22 22 21 22 23
33 34 35 36 37 36 35 34 34 34 36 37 39 43 51 58 49 40 38 26 34 60 62 56 57 57 58 57 54 53 53 55 53 51 50 47 44 41 41 41 37 35 36 37 41 42 39 38 38 33 29 28 26 26 26 25 28 29 29 30 29 24 20 17 14 14 19 23 23 23 27 32 35 37 39 37 35 34 32 30 27 25 23 22 22 22 22 24
34 34 34 37 39 38 36 35 35 33 33 34 38 43 46 50 52 46 35 19 22 51 62 58 57 58 60 59 55 54 52 53 56 54 51 50 47 42 39 42 41 38 36 36 37 39 36 31 30 29 25 26 25 26 27 25 27 28 27 29 29 24 19 17 14 14 18 22 25 23 26 35 40 39 41 40 37 37 35 32 31 28 25 24 23 22 22 23
33 35 35 37 39 40 37 36 36 33 32 34 37 43 42 40 49 51 40 23 17 38 56 59 57 56 59 57 53 52 50 50 55 54 52 52 51 47 42 40 41 40 38 37 34 35 33 25 24 27 26 25 26 26 26 25 25 27 27 28 26 21 19 17 14 16 17 17 22 21 18 27 39 41 42 42 40 39 37 35 33 29 27 27 26 23 21 22
30 35 36 36 39 40 38 37 37 34 34 35 35 42 44 39 41 48 45 29 20 27 48 58 59 57 59 58 51 49 48 49 52 52 50 50 50 50 47 42 40 39 38 35 31 30 31 27 24 26 26 26 26 25 24 23 23 25 26 25 24 22 21 20 15 13 13 13 15 19 15 19 31 40 41 41 42 42 40 38 35 32 30 29 28 25 23 23
27 33 35 36 39 40 39 39 37 36 37 35 34 40 48 46 37 39 38 21 18 26 43 53 57 57 59 60 57 54 53 53 51 50 50 49 49 49 50 49 44 39 39 36 30 29 32 32 29 27 27 26 27 27 25 23 22 24 24 22 26 27 24 24 22 15 13 16 17 20 20 20 31 43 41 38 41 42 44 43 39 35 32 31 30 28 27 25
24 30 34 35 39 41 41 40 37 39 39 34 35 40 48 49 40 36 28 9 8 22 39 49 53 55 57 60 61 59 58 58 55 52 51 50 49 48 49 51 49 44 41 39 36 33 34 35 33 32 31 30 31 29 23 22 23 24 22 19 22 22 24 28 27 20 13 14 21 28 23 16 27 43 41 38 42 42 43 43 41 38 35 33 32 30 28 27
22 28 33 35 38 42 42 41 40 41 39 35 35 39 45 45 40 33 20 8 9 19 36 46 48 53 57 59 60 60 58 55 54 53 51 51 51 49 47 47 47 44 39 39 39 35 32 33 32 33 36 36 34 28 22 22 23 24 19 17 15 13 20 25 24 20 10 10 25 34 28 15 21 37 40 39 43 44 43 41 39 39 36 34 33 31 29 27
20 25 32 35 39 42 44 43 42 40 37 35 34 38 41 39 40 28 9 11 17 21 36 45 45 53 59 59 58 60 59 52 51 53 51 51 51 48 45 41 41 41 38 36 35 32 28 27 28 31 34 35 31 25 22 20 22 21 17 17 17 15 17 20 19 14 6 11 25 28 29 20 14 28 39 43 47 43 40 38 36 37 36 34 33 31 29 28
20 23 29 35 38 41 44 43 42 39 35 35 36 38 39 39 41 23 6 17 22 21 38 45 44 54 62 64 60 57 59 52 51 55 54 52 48 44 41 37 35 35 34 35 34 30 27 25 28 32 33 31 26 24 23 21 23 22 19 22 19 12 13 13 12 10 5 9 13 14 22 23 16 23 28 33 43 42 39 39 37 35 34 32 32 31 30 28
20 23 27 34 38 40 45 44 42 40 37 38 36 39 42 36 31 18 10 21 21 22 40 46 46 55 60 62 61 59 61 56 53 56 57 54 49 45 44 43 43 37 31 35 33 28 28 29 30 31 32 31 26 25 24 22 25 26 24 24 15 4 5 7 4 5 8 9 5 2 8 20 34 41 34 29 34 34 33 35 35 35 34 32 31 30 30 29
19 22 26 32 37 41 45 44 42 40 39 42 35 36 41 27 15 20 23 22 16 24 43 47 48 57 57 54 55 58 59 56 55 56 56 57 52 47 44 45 49 43 36 36 32 25 20 21 30 32 31 32 30 30 31 28 27 29 28 26 19 7 2 5 3 1 8 14 13 7 5 17 35 42 43 44 41 37 34 31 31 32 32 33 32 31 30 30
19 22 26 31 36 42 45 43 43 41 40 44 37 31 35 21 10 24 35 27 17 27 44 48 51 58 56 52 54 58 57 51 54 56 54 55 52 48 46 45 46 46 43 39 33 30 21 15 29 37 32 31 32 31 30 29 27 28 29 29 29 23 10 5 6 5 6 8 11 12 9 16 21 18 23 33 37 40 41 39 36 35 32 31 32 32 31 30
19 21 25 31 37 42 45 43 44 42 39 44 42 34 32 26 21 27 36 37 28 31 44 50 55 57 50 48 54 60 59 53 54 55 54 56 55 53 54 52 50 48 47 40 32 35 31 20 26 36 34 29 30 31 29 26 27 28 31 30 31 30 17 5 7 12 8 2 6 15 19 25 25 17 12 14 20 27 32 36 38 39 38 34 31 31 31 31
20 22 26 31 37 41 45 45 45 44 40 41 43 39 33 31 32 31 34 42 40 39 46 49 52 50 45 44 49 54 57 56 58 55 52 55 56 57 57 56 55 52 50 45 37 35 31 19 17 28 35 30 25 28 31 28 26 27 32 34 31 29 22 9 6 9 6 3 10 18 27 35 32 27 23 19 20 19 18 21 24 28 34 35 34 31 29 29
22 25 28 31 34 40 45 47 46 44 41 39 40 42 37 32 32 32 36 41 39 43 50 49 42 39 41 41 41 49 54 52 54 52 48 49 50 56 59 56 56 56 52 48 42 38 32 20 13 19 30 33 25 20 25 28 26 27 33 37 32 24 23 18 6 2 3 3 8 16 26 30 24 23 24 22 25 26 22 20 19 19 22 28 31 30 30 30
26 28 32 33 33 40 46 48 47 43 39 39 41 42 41 38 33 32 38 43 39 44 53 51 42 37 41 43 43 52 57 52 51 49 47 46 45 53 62 58 57 58 53 49 43 39 35 21 13 18 23 29 28 21 22 26 28 29 30 34 30 19 20 24 11 2 5 3 4 9 18 25 28 29 25 17 16 20 22 24 25 21 18 21 23 22 27 31
29 31 36 36 32 40 49 49 46 41 38 43 45 43 43 44 39 30 33 43 43 46 53 52 47 44 45 49 53 59 60 57 58 53 50 51 46 51 63 61 58 58 53 50 43 38 35 21 13 19 22 22 27 29 31 32 30 27 24 28 32 22 17 25 20 8 5 4 4 4 6 17 32 39 36 28 20 14 13 16 20 18 18 21 20 17 21 26
32 35 39 36 31 40 50 47 43 42 43 48 51 45 41 45 47 35 30 42 45 47 54 54 51 51 49 48 53 60 58 56 62 57 50 54 47 46 59 61 58 58 53 50 44 36 33 26 18 20 22 23 28 33 37 37 34 32 30 31 35 27 17 19 24 21 10 2 2 2 4 16 25 24 26 28 25 22 19 17 16 14 16 19 20 21 22 24
32 37 41 36 31 41 49 46 44 46 47 51 54 49 41 41 49 43 34 40 45 48 53 54 53 55 54 51 52 58 53 51 58 55 47 52 50 44 53 60 58 57 55 51 46 37 31 29 27 28 29 31 31 32 32 33 34 36 36 37 39 36 27 15 15 27 25 11 6 3 5 23 27 12 10 15 15 18 18 18 18 16 16 18 20 23 25 26
35 40 43 36 33 43 49 47 47 48 51 53 54 52 46 39 41 46 43 39 45 50 51 51 54 53 55 57 57 57 55 53 57 55 48 51 54 48 48 56 57 52 53 52 46 39 32 26 25 28 31 29 23 24 27 28 32 35 34 36 39 39 37 25 11 18 26 23 20 9 8 30 37 19 9 10 12 16 17 18 20 20 21 22 22 23 25 27
38 41 40 36 36 44 50 51 51 50 52 55 54 52 51 45 38 39 45 44 46 52 49 47 51 52 53 56 57 57 56 52 54 55 49 45 49 48 43 49 54 50 50 52 47 40 33 25 24 23 22 21 15 16 22 23 29 36 38 39 38 39 43 36 19 13 17 24 26 13 10 29 36 25 19 14 12 14 14 16 20 20 19 19 19 21 22 24
39 38 36 37 40 45 52 56 57 53 52 55 54 51 50 50 44 39 43 48 47 49 51 49 50 52 53 54 57 61 56 48 48 52 48 42 44 45 40 43 49 50 51 51 49 44 33 26 27 22 12 9 9 9 17 25 32 38 42 40 38 39 40 38 31 18 13 24 27 13 16 34 34 25 23 18 14 14 12 14 17 17 18 18 16 17 18 21
36 33 34 39 42 46 54 62 62 58 56 54 53 52 49 49 50 46 44 50 50 48 51 53 52 51 52 51 53 58 55 46 46 52 48 42 42 42 40 40 44 50 50 46 46 45 36 31 32 25 14 10 12 14 25 36 39 38 39 41 42 42 39 40 37 23 19 32 31 24 32 45 36 23 17 14 15 17 19 20 21 21 22 22 20 19 17 19
35 34 35 41 44 47 54 62 65 63 61 57 53 54 52 50 52 49 43 46 48 48 51 53 52 48 46 48 47 49 52 44 42 49 50 43 40 41 42 40 38 44 48 43 42 42 38 36 37 36 33 31 32 34 36 38 39 38 39 41 44 45 44 41 34 32 39 39 33 41 51 48 38 26 16 13 14 15 17 21 24 25 23 21 20 18 16 16
38 39 40 45 45 46 53 62 64 63 65 63 57 56 54 51 53 53 47 41 38 43 50 52 52 50 47 49 49 47 50 46 39 44 50 47 42 38 38 37 35 40 47 45 42 42 40 39 40 42 41 40 39 38 33 29 29 32 37 39 42 44 47 44 40 47 50 32 28 49 56 51 50 39 23 17 16 16 17 17 20 23 23 19 15 12 12 12
43 42 45 52 50 47 55 63 64 62 63 64 59 57 57 53 52 52 51 46 36 37 46 48 50 54 52 53 53 48 48 48 42 41 47 50 48 40 36 36 36 39 45 47 45 44 43 44 45 44 41 38 35 31 29 24 19 22 29 35 38 42 47 51 52 56 50 36 40 53 49 51 59 51 41 33 24 21 21 17 18 19 19 17 12 10 11 11
48 45 44 54 56 52 57 64 64 62 63 61 55 53 56 55 50 49 52 53 44 38 43 48 51 53 52 52 52 50 49 50 48 49 52 53 52 47 42 40 39 40 46 50 49 46 44 43 44 44 41 37 32 27 24 22 17 19 24 30 35 40 44 48 52 55 52 50 55 53 44 49 52 48 50 44 34 32 30 25 24 21 19 18 15 15 15 14
52 51 47 54 57 53 58 66 67 65 63 61 53 48 53 54 50 49 52 56 53 47 47 51 52 53 52 51 50 50 50 51 53 57 57 53 52 51 48 46 45 45 47 49 48 47 42 34 35 41 37 30 27 22 16 15 14 15 18 23 31 38 43 47 49 51 53 57 61 54 48 55 55 49 46 37 34 39 39 36 34 29 28 28 24 24 22 20
55 53 51 56 55 52 59 67 70 67 63 62 57 50 51 53 50 52 55 56 56 54 54 55 53 50 50 50 49 49 48 50 52 53 54 53 51 51 51 48 46 48 48 46 44 46 39 24 24 35 32 23 21 16 11 9 7 9 17 24 32 38 43 46 47 48 51 56 58 53 53 60 60 56 51 42 37 37 38 39 37 34 37 36 30 30 29 27
59 54 55 60 57 54 60 66 69 68 64 64 62 55 55 55 50 50 55 55 55 55 54 54 51 50 51 51 50 49 48 48 48 46 47 49 48 48 50 48 45 46 48 46 43 43 40 27 21 27 27 20 17 14 12 9 5 11 26 34 36 37 37 39 42 45 49 52 52 51 54 57 55 55 57 55 51 46 43 41 35 33 38 38 33 32 32 30
Wind_Direction
226 226 227 229 228 222 218 212 208 211 211 210 209 209 209 211 214 217 218 215 214 214 214 214 213 212 212 213 215 215 216 218 221 222 221 222 222 224 227 220 208 205 204 203 205 209 218 223 221 216 206 201 198 198 208 211 210 214 219 223 226 234 243 239 224 219 222 236 246 231 237 252 268 279 280 276 265 259 243 213 187 181 193 189 176 165 127 135
228 226 227 230 230 225 219 213 207 208 210 209 209 210 208 208 211 214 215 216 214 212 211 211 210 210 211 212 214 215 215 218 221 222 222 220 220 221 224 222 210 205 205 202 202 207 215 221 223 219 208 202 198 196 202 206 205 207 215 219 220 229 235 227 219 217 220 227 228 220 230 241 254 268 262 261 257 246 234 214 207 184 165 170 178 162 135 142
229 228 229 231 231 228 220 215 210 204 208 209 208 210 209 208 209 211 212 215 215 211 209 210 209 208 209 210 213 215 215 218 221 221 221 219 218 219 222 224 215 204 203 203 201 205 213 218 220 217 209 203 197 195 198 198 198 206 213 215 217 222 222 219 219 220 220 220 220 222 233 240 251 263 255 248 243 228 205 195 198 187 172 178 197 180 144 148
228 229 230 231 232 229 221 218 213 203 204 207 208 210 209 209 207 208 211 213 213 211 209 209 210 208 207 209 211 214 216 221 222 219 220 220 217 219 221 223 219 206 200 202 202 204 212 217 218 214 209 205 201 200 202 199 194 207 213 215 218 217 217 218 218 219 220 221 221 225 232 240 257 259 252 243 238 217 183 186 181 190 192 178 188 190 157 153
225 228 230 231 231 227 222 220 215 208 205 205 208 209 208 208 206 208 210 210 212 210 207 208 209 208 207 207 209 212 214 221 222 216 218 220 217 219 220 220 217 206 199 200 201 203 209 214 216 213 212 211 208 208 211 210 205 210 214 216 220 216 217 220 219 219 219 220 221 226 231 237 252 248 247 243 225 168 177 187 182 189 188 181 184 178 160 152
222 226 228 229 229 227 225 224 219 215 212 206 207 209 207 203 205 212 210 208 211 209 205 207 208 207 205 205 208 212 213 218 220 215 216 219 217 218 218 218 215 206 200 201 202 202 206 211 214 213 214 217 215 213 219 220 212 212 217 218 220 217 219 223 222 223 222 221 223 226 228 235 246 242 242 233 196 172 200 194 190 193 186 187 186 168 154 148
221 225 225 227 228 227 226 227 224 219 216 208 205 208 206 199 201 210 213 210 210 209 205 205 208 207 205 204 206 213 216 218 218 214 215 216 217 218 217 216 215 208 201 201 202 201 204 208 214 216 216 218 219 217 223 223 212 213 221 219 219 218 221 226 226 227 226 224 226 226 227 235 243 240 234 212 181 199 211 201 200 199 191 191 189 173 160 152
219 223 223 224 228 228 226 228 228 223 218 210 204 205 205 202 201 203 210 214 210 209 206 202 206 207 205 205 205 211 215 215 215 213 214 215 216 217 216 214 213 208 202 203 203 202 206 208 212 219 220 220 221 221 225 224 215 217 223 220 219 219 222 229 228 229 229 226 228 227 229 237 239 237 225 191 182 207 209 208 207 202 196 191 190 189 178 165
215 219 220 221 225 228 227 228 229 225 218 209 201 202 205 203 203 205 207 212 209 208 207 202 205 206 204 204 207 213 214 211 210 211 214 215 215 215 214 212 212 209 205 205 205 204 209 211 213 217 220 221 223 225 226 226 225 226 229 225 220 221 224 230 231 232 232 229 229 229 232 237 237 236 221 193 198 207 205 211 209 204 199 191 192 197 193 183
214 216 218 219 222 226 228 227 228 227 218 208 197 197 203 199 198 208 210 210 209 207 205 202 204 207 202 201 207 215 214 209 209 209 213 216 215 215 214 213 212 210 208 208 208 207 211 214 215 216 219 223 226 228 229 230 234 236 238 234 226 224 227 229 232 233 234 233 232 233 235 237 236 232 217 200 208 208 205 210 209 207 201 194 193 195 200 197
216 217 217 216 218 223 227 228 227 226 219 212 201 194 199 198 194 207 213 210 211 208 205 201 203 208 204 200 207 214 211 208 209 208 209 213 214 214 214 213 212 211 211 211 212 213 214 216 217 217 218 222 225 229 233 233 237 242 245 241 231 230 233 230 233 235 236 236 234 237 238 236 233 225 210 203 211 210 210 211 210 209 203 200 196 195 201 202
216 217 218 216 217 221 225 229 227 228 223 214 207 196 195 199 199 209 218 210 209 209 207 203 201 208 208 203 207 212 209 207 209 207 207 209 210 211 210 210 211 211 213 216 218 219 220 221 220 220 220 222 223 226 233 232 234 242 248 247 236 234 236 232 234 236 237 238 236 240 242 235 227 219 209 210 214 211 212 214 214 211 207 205 202 201 201 205
215 215 217 215 215 218 221 228 228 231 227 216 211 200 194 201 203 210 215 205 204 208 209 205 201 207 211 207 206 207 206 206 208 208 208 208 209 209 208 209 210 209 212 217 220 221 222 223 222 221 220 222 223 224 230 232 235 244 249 251 242 237 236 235 237 238 238 241 238 242 247 236 223 218 216 218 219 216 216 216 217 216 212 211 209 208 205 208
212 212 214 212 213 217 219 227 230 232 228 219 213 201 196 202 202 205 211 203 201 206 209 206 201 205 211 212 208 204 202 204 206 208 208 209 210 208 207 209 210 208 209 213 218 220 221 220 219 219 219 221 223 227 235 240 241 246 250 251 246 239 235 234 239 239 239 242 239 243 249 238 222 218 222 223 222 221 220 218 219 218 216 215 214 214 212 213
210 211 211 210 210 214 217 222 229 229 227 223 217 206 200 202 202 204 212 209 203 202 206 205 201 203 209 213 210 204 200 201 204 207 208 209 211 211 209 207 208 208 209 212 216 219 219 216 216 217 218 219 222 227 235 244 246 244 246 246 244 239 233 231 234 236 237 242 241 242 248 240 224 218 222 225 224 224 224 222 221 221 219 218 217 218 217 216
208 209 207 206 204 207 213 216 224 225 223 224 220 212 204 201 204 204 207 211 206 201 204 203 199 201 206 211 209 203 199 200 202 205 207 208 209 210 211 209 208 209 209 213 217 217 216 214 215 218 220 220 222 226 233 241 244 240 239 241 241 236 232 234 236 233 235 241 243 242 245 242 230 220 222 226 227 226 227 225 224 225 223 222 221 221 221 219
207 208 205 202 199 200 206 208 216 221 219 223 223 217 206 199 206 204 198 204 203 202 205 205 202 199 203 209 207 202 198 200 201 202 205 205 205 205 206 207 208 210 210 213 217 217 217 217 218 221 223 224 224 226 228 231 236 237 238 240 241 233 228 235 238 233 236 241 246 247 244 240 234 225 224 230 233 231 229 229 230 229 228 227 226 225 224 223
209 210 205 199 196 195 200 203 208 215 215 220 222 219 210 202 206 205 200 202 202 203 204 206 201 192 197 206 206 203 199 199 201 202 204 204 204 205 206 208 208 209 211 213 216 217 218 220 223 225 225 226 227 227 226 227 233 236 238 239 239 233 226 232 238 234 237 241 245 249 247 240 234 230 228 232 235 234 233 233 233 231 230 231 230 230 228 228
208 208 203 197 195 193 196 200 204 207 209 213 217 219 214 206 206 204 200 200 200 199 195 197 197 192 198 205 205 203 199 199 200 200 205 205 203 203 205 210 211 210 210 211 214 216 218 220 222 225 226 226 228 230 232 235 240 241 242 241 239 234 227 229 238 240 239 243 242 246 249 242 235 231 230 234 236 235 236 235 235 233 232 233 232 233 233 234
206 205 201 195 194 195 195 197 202 202 204 207 209 214 213 209 210 205 199 195 197 200 199 198 199 199 203 205 202 200 197 199 200 198 201 205 204 201 200 205 210 210 211 212 212 215 218 220 223 224 226 228 229 232 236 239 242 243 242 240 239 236 229 228 237 243 244 248 244 244 249 244 237 233 231 235 236 234 235 235 236 236 236 237 238 238 238 239
208 204 201 196 194 196 196 197 199 199 200 203 205 211 213 211 212 204 198 197 196 200 205 204 201 200 204 206 203 199 192 192 198 198 196 199 201 198 193 196 202 205 210 213 214 215 217 221 224 226 227 230 229 230 234 236 240 241 237 237 242 238 231 229 235 242 247 255 251 246 249 244 238 233 230 233 235 233 233 233 235 239 239 239 239 240 240 242
210 205 201 198 197 198 198 198 198 198 199 199 204 214 216 211 209 199 196 208 204 200 205 205 203 201 203 208 206 201 194 188 191 194 192 193 195 194 192 191 193 198 203 208 211 213 216 221 224 224 225 225 225 228 231 236 242 242 236 236 243 241 234 231 239 246 248 258 259 254 254 248 239 235 231 231 233 233 233 234 234 238 241 239 239 241 241 240
211 207 204 201 201 201 200 200 198 198 200 200 203 214 218 214 212 205 200 219 213 200 202 202 202 204 202 204 205 202 200 194 190 192 193 192 189 191 195 190 186 189 194 199 204 205 208 215 218 217 217 218 220 224 227 233 239 240 236 233 237 240 235 227 232 241 241 250 256 258 262 253 240 235 232 229 230 232 233 236 236 237 239 239 240 243 243 239
211 207 205 204 203 203 201 201 200 199 201 203 205 210 217 218 218 212 205 231 218 194 198 201 200 205 204 202 202 201 202 201 197 195 195 194 189 187 192 191 187 185 187 193 198 201 203 208 211 211 212 215 217 222 225 228 231 234 233 230 233 236 230 224 229 236 238 244 245 254 273 260 243 236 234 230 229 231 232 235 237 236 237 238 241 244 243 240
210 207 206 205 205 204 201 201 202 200 201 204 205 207 211 218 221 216 211 238 237 188 193 200 199 202 205 202 199 198 201 202 200 199 197 197 195 191 190 192 191 187 188 190 192 198 203 204 205 209 211 212 216 222 226 229 230 232 232 229 233 237 229 224 236 246 247 250 244 247 272 264 248 240 235 232 230 231 232 234 236 236 237 239 242 244 242 239
209 206 206 206 206 205 202 203 202 199 203 205 204 203 204 211 219 218 213 231 250 195 184 194 198 199 202 200 195 193 197 199 197 196 196 196 199 198 194 193 194 193 192 189 191 198 201 201 200 206 212 213 219 225 227 232 232 235 239 236 234 237 231 223 231 246 249 250 241 234 248 268 259 247 238 235 235 233 233 234 236 237 238 241 241 242 241 239
209 205 204 205 206 206 204 205 202 199 204 206 202 200 202 207 214 216 213 226 258 213 183 185 193 196 198 198 195 190 191 196 194 192 194 194 197 200 200 197 195 197 196 190 194 204 203 203 201 204 212 216 222 224 226 232 233 237 244 242 237 238 233 224 225 233 245 253 240 226 241 269 265 252 244 240 239 237 236 236 237 239 241 243 242 240 241 240
207 203 202 202 205 207 206 205 202 202 206 204 199 200 203 208 213 213 209 213 264 216 190 184 187 191 196 198 198 195 195 197 192 187 192 193 193 198 202 200 197 198 200 197 199 207 208 208 208 209 213 219 223 221 224 232 231 233 240 239 238 237 229 222 224 229 243 269 252 229 232 258 259 253 249 246 245 240 238 238 238 240 243 244 243 241 242 242
206 203 201 201 204 208 209 205 203 205 205 200 197 201 204 208 212 209 203 211 230 209 191 186 185 187 190 192 193 197 199 198 192 186 188 190 191 196 200 200 199 197 199 204 206 210 211 212 214 216 218 222 223 220 224 232 228 228 232 228 217 206 213 216 220 228 236 269 255 237 227 241 260 254 249 245 248 245 240 240 240 241 244 245 244 243 244 246
206 205 203 202 204 208 210 205 204 206 204 199 198 201 203 208 209 204 203 211 206 199 189 183 182 183 183 181 183 192 196 193 193 189 185 187 189 193 196 196 199 195 191 198 207 211 211 209 210 214 220 225 226 223 223 225 223 219 212 204 196 185 199 208 211 222 239 254 256 248 234 238 267 261 251 244 246 248 246 244 242 240 242 244 244 245 247 249
207 207 206 205 205 208 211 207 204 204 201 199 200 200 203 209 208 201 219 210 196 187 187 183 180 177 177 176 174 185 193 189 190 189 184 186 187 188 188 186 189 189 187 192 200 207 208 206 207 211 217 222 224 220 213 212 213 208 196 191 192 186 190 201 208 211 222 247 264 267 243 240 251 255 254 247 245 250 252 248 244 240 239 242 244 245 248 250
210 210 209 208 206 207 212 211 206 204 201 199 202 203 204 209 209 203 197 198 195 185 182 182 179 173 172 176 173 179 188 186 188 191 189 187 186 188 189 185 183 178 181 191 193 198 202 206 210 212 215 216 213 207 199 200 205 203 197 188 178 139 171 201 210 212 235 247 267 296 228 237 247 248 248 247 244 248 252 251 248 244 240 239 241 244 247 249
215 213 212 211 207 207 212 212 207 205 203 201 204 208 209 210 213 213 202 184 185 191 184 180 180 175 170 171 170 176 184 184 185 190 193 190 186 188 192 193 189 182 182 186 182 178 183 201 210 211 213 211 208 202 194 192 196 201 202 193 181 148 114 211 196 246 255 243 239 237 218 241 251 253 251 248 248 249 250 252 250 247 243 240 240 243 246 249
225 218 216 214 209 208 212 213 209 208 207 204 205 209 211 212 214 213 207 198 186 184 186 182 176 174 174 171 170 176 178 177 182 184 185 187 185 185 190 194 196 194 190 186 184 181 175 193 210 209 211 210 208 209 211 210 206 208 212 207 200 191 181 196 192 206 244 233 221 214 221 245 247 252 254 252 253 251 249 251 251 249 246 241 241 243 246 250
239 230 223 216 212 211 211 212 211 210 208 207 209 213 212 210 216 212 204 205 202 183 180 181 174 171 172 169 170 178 177 172 180 183 182 186 187 188 192 193 195 199 195 186 186 190 190 201 212 210 212 215 211 209 215 216 207 205 207 207 207 204 199 178 186 212 229 250 215 205 220 241 241 240 246 250 256 254 252 253 253 251 250 246 243 242 243 248
253 246 235 222 215 212 210 211 212 212 210 208 212 222 221 210 215 220 208 203 203 188 175 173 173 170 168 164 164 174 179 174 176 180 182 188 192 193 195 194 193 198 200 193 187 188 192 200 209 207 208 212 215 213 214 213 204 197 198 203 208 207 205 194 186 211 214 244 237 223 234 246 251 254 251 241 247 254 253 255 257 257 254 250 246 242 242 245
259 254 246 233 217 211 211 212 211 211 212 211 214 222 225 215 214 222 217 207 199 189 178 170 173 171 163 162 160 167 174 172 172 177 179 183 192 196 196 197 197 199 205 203 198 195 192 186 191 200 204 208 209 212 218 221 214 202 203 208 207 202 208 211 203 183 180 244 247 229 238 248 251 256 256 247 244 247 248 253 263 263 255 252 251 247 245 246
262 257 252 243 221 209 212 212 209 208 208 212 217 221 222 221 221 220 215 209 201 191 181 171 172 173 163 161 162 168 173 172 171 178 180 182 194 200 198 199 199 200 204 205 206 207 198 183 179 189 199 204 200 194 201 210 214 214 218 216 203 194 206 205 197 178 196 227 279 234 239 246 242 242 250 254 250 254 255 252 254 254 250 255 257 250 247 246
266 262 255 247 228 211 211 211 208 204 205 211 218 221 221 220 223 224 210 205 202 192 184 177 173 173 170 167 167 172 177 176 175 179 183 187 195 203 202 202 200 199 201 202 206 211 202 186 171 182 188 188 187 191 195 196 199 205 218 216 204 202 206 201 200 203 188 199 256 253 248 248 247 248 249 251 253 258 252 246 252 254 248 248 249 244 244 245
268 267 258 249 232 214 210 210 206 201 204 212 216 220 223 220 223 226 207 200 201 191 186 184 177 172 172 172 171 174 177 179 180 182 187 192 193 198 202 203 202 199 198 200 205 208 203 197 180 172 178 182 190 199 201 199 196 195 200 203 203 204 202 204 212 216 206 162 205 226 270 253 252 257 258 255 254 251 245 246 250 247 241 241 240 241 244 247
269 267 259 249 233 217 210 206 203 201 205 213 217 219 221 221 223 222 205 195 197 195 190 187 182 177 175 176 176 176 177 181 184 184 190 195 195 197 200 202 203 199 195 196 202 203 202 202 187 171 177 191 201 207 205 206 209 207 204 203 203 201 195 194 216 221 219 220 219 189 277 260 250 246 270 272 263 254 249 245 240 237 242 245 243 245 247 250
267 265 259 249 231 217 210 204 202 204 207 212 216 219 219 220 222 223 218 202 190 191 192 187 183 180 179 181 182 179 180 184 187 189 194 199 200 200 200 200 202 201 197 196 199 200 198 196 183 174 183 193 204 211 207 208 214 214 214 214 209 204 201 199 203 216 215 223 240 244 279 266 257 246 255 272 262 252 244 236 233 234 241 244 245 250 253 253
266 263 259 247 227 215 209 202 201 203 207 212 216 219 220 218 217 221 224 215 194 188 191 187 183 182 183 183 182 180 182 185 189 193 196 200 203 203 202 200 200 199 199 198 196 196 197 192 173 163 175 186 196 213 211 209 211 211 215 215 208 207 209 208 209 216 210 218 231 234 257 262 260 255 247 241 237 240 242 243 238 235 243 251 254 257 257 256
266 262 253 237 221 213 208 202 198 200 205 210 213 217 218 217 217 217 212 209 202 193 191 190 187 186 185 185 185 184 184 185 188 193 198 201 203 204 203 201 199 197 200 203 199 194 192 186 169 150 140 176 193 204 207 209 211 213 214 211 208 211 211 210 216 225 229 227 223 216 246 252 254 259 255 241 224 227 247 261 254 254 269 279 278 269 262 263
259 250 240 229 218 211 209 204 200 199 202 206 210 214 216 213 217 217 203 197 201 201 196 192 191 190 187 185 185 185 186 187 188 193 199 202 203 204 204 202 201 200 202 204 202 199 194 189 181 169 157 178 195 201 206 207 206 211 216 213 212 212 208 211 217 219 233 236 224 215 236 245 247 252 257 245 230 240 257 266 267 272 281 285 287 282 271 265
244 236 227 220 217 213 209 206 203 201 201 204 208 213 215 212 214 215 204 191 192 198 198 195 192 189 187 186 185 184 186 191 193 195 199 202 203 204 204 202 202 203 203 202 202 203 200 197 200 201 202 207 211 212 214 209 204 209 215 214 214 213 210 210 210 214 227 232 226 226 234 242 244 240 236 234 236 248 256 257 261 269 278 283 282 279 271 261
232 231 218 204 203 207 206 203 202 202 202 204 206 210 214 214 214 214 210 200 189 188 195 198 195 192 189 189 189 189 190 194 198 201 203 205 207 206 203 201 201 202 204 203 202 203 201 203 210 215 217 220 218 216 218 217 218 222 220 216 214 213 213 211 211 221 226 222 230 236 235 239 243 238 227 226 231 233 231 234 246 256 265 270 262 254 254 249
225 226 217 202 197 200 200 198 198 200 202 203 205 208 209 211 213 213 213 213 204 191 191 194 197 199 198 195 194 190 191 195 200 203 204 206 207 203 196 196 200 203 203 203 204 206 206 210 214 214 214 217 217 220 225 224 227 232 228 225 221 215 213 214 218 225 225 220 235 242 239 241 244 242 237 231 220 214 219 232 247 247 243 246 246 245 248 248
222 221 215 204 200 202 199 197 196 198 201 202 202 207 207 206 212 215 216 216 210 198 195 194 195 200 202 201 198 193 192 196 200 204 207 206 206 202 192 189 197 201 202 203 204 205 208 212 213 210 208 210 214 221 228 225 223 225 227 231 229 223 221 222 226 229 226 228 238 242 244 247 246 246 245 239 226 221 225 236 250 250 237 238 255 265 264 266
217 216 212 199 197 202 199 195 195 196 200 202 201 204 205 205 210 212 213 216 209 197 197 200 198 199 201 203 204 203 204 207 206 207 207 204 202 201 195 190 192 194 198 202 200 200 205 210 209 206 202 204 211 216 220 222 227 229 229 231 231 230 229 229 233 232 227 232 239 240 244 250 248 245 244 238 230 231 233 238 246 249 243 246 259 266 268 274
210 210 211 199 193 197 196 193 194 195 197 200 200 199 200 204 211 207 204 211 211 201 199 202 201 199 199 202 208 211 213 213 212 212 211 208 207 206 202 197 193 188 191 197 197 198 202 205 204 201 197 196 203 205 202 202 215 240 242 237 231 228 228 229 233 232 229 234 238 237 242 250 251 248 244 239 234 233 234 238 241 240 240 247 259 264 266 271
205 204 208 202 193 193 194 191 192 194 196 199 200 199 199 202 206 201 194 198 205 204 202 202 201 200 199 203 210 213 212 213 214 215 214 213 214 213 209 207 203 195 191 193 195 198 202 204 201 196 193 192 191 188 188 178 175 239 239 236 231 229 231 233 235 235 235 235 235 235 243 251 255 253 250 247 244 240 238 238 237 236 240 247 258 264 266 268
Height
3002 3006 3010 3013 3018 3024 3030 3035 3039 3044 3048 3052 3057 3061 3066 3070 3074 3079 3082 3087 3091 3095 3099 3103 3107 3110 3112 3115 3117 3120 3123 3126 3127 3129 3131 3135 3138 3140 3141 3144 3147 3149 3152 3154 3157 3159 3160 3162 3165 3168 3171 3174 3176 3179 3181 3182 3183 3184 3185 3186 3187 3188 3189 3190 3191 3192 3192 3193 3193 3193 3194 3194 3194 3195 3195 3195 3196 3196 3196 3196 3196 3196 3197 3197 3198 3198 3198 3199
2997 3001 3005 3009 3013 3018 3025 3031 3034 3039 3044 3048 3053 3057 3062 3066 3071 3075 3079 3083 3088 3092 3096 3100 3103 3107 3110 3113 3115 3118 3121 3123 3125 3126 3130 3133 3136 3138 3139 3141 3145 3148 3150 3153 3155 3158 3159 3161 3164 3167 3170 3173 3175 3177 3179 3180 3181 3183 3183 3185 3186 3187 3189 3190 3190 3191 3191 3191 3192 3192 3193 3193 3194 3194 3194 3194 3195 3195 3196 3196 3196 3197 3197 3197 3198 3198 3198 3199
2993 2997 3001 3004 3008 3013 3020 3026 3030 3034 3040 3045 3050 3054 3058 3063 3067 3072 3076 3080 3085 3089 3093 3097 3101 3104 3108 3110 3113 3116 3119 3121 3121 3123 3128 3131 3134 3136 3137 3139 3143 3146 3149 3151 3154 3156 3158 3160 3163 3166 3169 3171 3173 3175 3177 3178 3179 3181 3182 3184 3185 3186 3187 3188 3188 3189 3190 3190 3191 3191 3191 3192 3193 3193 3193 3194 3194 3194 3195 3196 3196 3197 3197 3197 3198 3198 3198 3199
2990 2993 2997 3000 3004 3009 3016 3021 3026 3030 3035 3041 3045 3050 3055 3059 3064 3069 3073 3077 3081 3086 3090 3095 3098 3102 3105 3108 3111 3114 3117 3117 3116 3121 3126 3128 3131 3134 3136 3138 3141 3144 3147 3149 3151 3154 3157 3160 3163 3165 3168 3170 3172 3174 3175 3176 3177 3180 3182 3183 3183 3184 3185 3186 3186 3187 3187 3189 3189 3190 3190 3191 3191 3192 3192 3193 3193 3194 3195 3195 3195 3196 3196 3197 3197 3198 3198 3199
2987 2989 2993 2997 3000 3005 3011 3016 3022 3026 3031 3037 3041 3046 3051 3056 3061 3065 3069 3074 3078 3083 3088 3092 3095 3099 3102 3106 3109 3111 3114 3113 3112 3120 3123 3125 3129 3132 3134 3136 3139 3142 3144 3146 3149 3152 3155 3158 3162 3165 3167 3169 3171 3173 3173 3174 3176 3179 3180 3181 3181 3182 3184 3184 3184 3185 3185 3187 3187 3188 3189 3190 3190 3190 3191 3192 3193 3194 3194 3194 3194 3195 3196 3196 3197 3197 3198 3199
2983 2985 2989 2993 2997 3001 3007 3011 3016 3022 3028 3033 3038 3043 3048 3054 3060 3063 3066 3071 3075 3079 3084 3089 3092 3096 3100 3103 3107 3109 3109 3107 3110 3117 3120 3122 3127 3129 3132 3134 3137 3140 3142 3145 3147 3150 3154 3156 3160 3162 3165 3167 3169 3171 3172 3174 3176 3178 3178 3178 3179 3181 3182 3183 3184 3184 3185 3186 3186 3187 3188 3188 3189 3190 3190 3191 3192 3193 3193 3193 3194 3194 3195 3196 3196 3197 3197 3199
2980 2982 2985 2990 2994 2998 3002 3006 3010 3018 3025 3029 3034 3039 3045 3050 3056 3060 3064 3068 3072 3076 3081 3086 3090 3093 3097 3101 3104 3105 3105 3105 3110 3115 3117 3121 3124 3127 3130 3132 3135 3137 3140 3143 3145 3149 3152 3155 3157 3160 3164 3166 3167 3169 3170 3173 3175 3176 3176 3177 3178 3179 3180 3181 3183 3184 3184 3185 3186 3186 3187 3187 3188 3188 3189 3189 3191 3192 3192 3193 3193 3194 3195 3196 3196 3197 3197 3198
2976 2978 2982 2987 2990 2994 2998 3002 3007 3014 3021 3026 3030 3035 3041 3047 3052 3056 3061 3065 3069 3073 3077 3083 3086 3089 3093 3096 3099 3099 3099 3103 3108 3112 3114 3118 3121 3124 3128 3130 3133 3135 3138 3141 3144 3148 3151 3153 3156 3158 3162 3164 3165 3167 3169 3172 3174 3174 3173 3175 3176 3177 3179 3180 3181 3182 3183 3184 3185 3185 3186 3186 3187 3187 3187 3189 3190 3190 3191 3192 3193 3193 3194 3195 3196 3197 3197 3198
2973 2974 2979 2984 2987 2990 2994 2999 3004 3010 3017 3023 3026 3031 3038 3044 3050 3054 3058 3062 3066 3070 3074 3080 3083 3086 3090 3093 3096 3094 3095 3101 3107 3110 3112 3115 3118 3122 3125 3128 3131 3134 3136 3139 3143 3147 3149 3152 3155 3157 3160 3162 3164 3166 3168 3171 3171 3171 3171 3173 3175 3176 3177 3178 3179 3181 3182 3183 3183 3184 3184 3185 3185 3185 3186 3188 3188 3188 3190 3191 3192 3193 3194 3195 3196 3197 3197 3198
2970 2972 2976 2980 2984 2988 2991 2997 3001 3005 3013 3019 3023 3028 3035 3042 3048 3053 3056 3059 3064 3067 3070 3076 3080 3083 3084 3088 3090 3089 3095 3102 3106 3109 3111 3114 3117 3120 3124 3127 3130 3133 3135 3138 3141 3145 3148 3151 3153 3157 3159 3161 3162 3164 3167 3168 3169 3170 3170 3172 3174 3174 3175 3176 3178 3179 3180 3181 3182 3182 3183 3183 3183 3183 3185 3187 3187 3187 3189 3190 3191 3192 3193 3194 3195 3196 3197 3198
2967 2970 2974 2978 2981 2985 2989 2993 2998 3002 3007 3015 3020 3024 3031 3039 3044 3049 3053 3056 3061 3064 3067 3072 3077 3080 3081 3083 3084 3086 3095 3101 3103 3107 3110 3112 3115 3118 3123 3126 3129 3131 3134 3137 3140 3143 3146 3149 3152 3155 3157 3158 3160 3162 3164 3166 3167 3168 3169 3171 3172 3173 3174 3175 3177 3178 3179 3180 3181 3181 3181 3181 3181 3182 3184 3186 3186 3187 3188 3189 3190 3191 3192 3193 3194 3194 3195 3197
2965 2968 2971 2975 2979 2983 2986 2990 2994 2997 3001 3010 3018 3022 3028 3034 3039 3044 3048 3052 3057 3061 3064 3069 3073 3076 3078 3079 3081 3087 3095 3099 3101 3105 3107 3110 3112 3116 3121 3124 3127 3130 3133 3137 3139 3142 3145 3148 3150 3152 3154 3156 3159 3161 3161 3163 3166 3166 3167 3169 3170 3171 3172 3174 3176 3177 3178 3178 3179 3180 3179 3179 3179 3181 3184 3184 3185 3185 3186 3187 3189 3190 3191 3192 3193 3193 3194 3195
2962 2965 2969 2973 2977 2980 2984 2987 2990 2993 2998 3006 3015 3020 3025 3030 3035 3040 3042 3045 3052 3057 3061 3066 3070 3073 3075 3075 3079 3086 3093 3096 3099 3103 3105 3109 3111 3115 3119 3122 3126 3129 3132 3135 3138 3141 3143 3146 3148 3150 3152 3154 3156 3157 3158 3161 3163 3164 3165 3166 3167 3169 3170 3172 3174 3175 3176 3177 3178 3179 3177 3176 3179 3181 3183 3183 3183 3184 3185 3186 3187 3189 3190 3191 3192 3192 3193 3194
2960 2963 2967 2970 2974 2978 2981 2984 2987 2990 2995 3003 3011 3018 3022 3026 3031 3036 3040 3043 3048 3053 3058 3062 3065 3069 3072 3073 3077 3083 3089 3093 3097 3100 3102 3106 3109 3112 3116 3120 3124 3127 3130 3133 3136 3139 3141 3144 3147 3148 3150 3152 3154 3155 3156 3158 3161 3162 3163 3163 3165 3166 3166 3170 3173 3173 3175 3175 3176 3178 3175 3174 3178 3181 3181 3181 3182 3183 3183 3185 3186 3187 3188 3189 3190 3191 3192 3193
2958 2961 2965 2969 2972 2975 2978 2981 2984 2988 2993 3000 3007 3014 3018 3022 3027 3032 3037 3040 3044 3050 3054 3058 3061 3065 3068 3070 3074 3079 3085 3089 3092 3096 3100 3104 3107 3110 3113 3117 3122 3125 3128 3131 3133 3137 3140 3143 3145 3146 3148 3150 3152 3153 3155 3156 3158 3160 3161 3161 3162 3163 3163 3167 3170 3171 3173 3174 3174 3176 3174 3173 3177 3179 3179 3179 3180 3181 3182 3183 3184 3185 3186 3188 3189 3190 3191 3192
2956 2959 2963 2967 2971 2974 2976 2979 2983 2986 2992 2998 3003 3010 3015 3019 3024 3028 3032 3036 3040 3044 3047 3051 3055 3059 3063 3065 3070 3075 3080 3084 3088 3093 3098 3101 3105 3108 3111 3115 3119 3122 3126 3129 3132 3135 3138 3140 3142 3144 3145 3148 3149 3151 3154 3155 3155 3157 3159 3159 3160 3161 3163 3166 3168 3170 3171 3172 3172 3173 3172 3172 3175 3177 3177 3178 3178 3179 3180 3181 3182 3183 3184 3186 3187 3188 3189 3190
2954 2958 2961 2966 2970 2973 2976 2979 2982 2985 2990 2995 2999 3007 3013 3016 3021 3025 3029 3033 3035 3039 3043 3048 3052 3057 3060 3061 3065 3070 3074 3080 3084 3088 3093 3097 3102 3106 3109 3112 3115 3119 3123 3126 3130 3132 3135 3137 3138 3140 3143 3145 3147 3150 3152 3152 3153 3155 3157 3158 3159 3160 3162 3164 3166 3169 3170 3170 3170 3171 3170 3171 3173 3176 3176 3176 3177 3178 3178 3180 3180 3181 3182 3184 3185 3186 3187 3188
2952 2956 2959 2964 2968 2971 2975 2977 2981 2983 2987 2992 2996 3004 3011 3014 3018 3021 3026 3031 3033 3038 3041 3043 3046 3047 3050 3053 3059 3065 3071 3076 3080 3084 3089 3093 3098 3102 3107 3110 3112 3116 3120 3123 3126 3128 3131 3133 3136 3138 3139 3142 3144 3146 3148 3149 3151 3154 3155 3157 3157 3158 3160 3162 3164 3167 3167 3167 3168 3168 3168 3169 3172 3174 3174 3174 3175 3176 3177 3177 3178 3179 3180 3181 3182 3184 3185 3186
2950 2954 2957 2962 2965 2969 2972 2975 2978 2981 2985 2990 2994 3002 3008 3012 3015 3016 3021 3025 3023 3025 3025 3026 3031 3035 3038 3045 3054 3064 3070 3074 3077 3081 3086 3090 3094 3098 3103 3107 3109 3112 3116 3119 3122 3124 3127 3130 3132 3133 3134 3137 3140 3144 3146 3149 3151 3152 3153 3154 3154 3156 3158 3160 3163 3165 3165 3164 3165 3165 3166 3167 3170 3172 3173 3173 3173 3174 3174 3175 3176 3177 3178 3179 3180 3181 3183 3184
2948 2952 2955 2960 2963 2965 2969 2972 2975 2978 2983 2987 2992 2997 3001 3004 3007 3009 3014 3017 3015 3016 3018 3019 3026 3033 3037 3042 3050 3060 3067 3071 3074 3078 3083 3087 3091 3095 3100 3103 3106 3110 3112 3114 3118 3121 3125 3128 3127 3127 3130 3136 3141 3145 3146 3148 3149 3150 3151 3152 3153 3154 3156 3159 3162 3163 3163 3162 3162 3163 3164 3165 3166 3169 3171 3171 3170 3171 3172 3173 3174 3175 3176 3177 3178 3179 3180 3182
2947 2950 2954 2958 2961 2963 2966 2969 2972 2976 2979 2985 2989 2992 2994 2998 3001 3006 3011 3015 3017 3018 3020 3023 3028 3032 3036 3040 3046 3052 3058 3065 3071 3076 3080 3085 3089 3092 3096 3099 3102 3105 3108 3112 3116 3120 3123 3123 3123 3126 3132 3138 3142 3143 3144 3145 3146 3147 3149 3151 3152 3152 3153 3158 3161 3162 3163 3161 3160 3162 3161 3161 3163 3166 3168 3167 3167 3168 3170 3171 3172 3173 3174 3174 3175 3177 3178 3179
2945 2949 2952 2956 2959 2961 2963 2966 2970 2973 2976 2981 2986 2989 2993 2998 3003 3009 3013 3015 3018 3018 3019 3024 3028 3032 3036 3040 3045 3051 3055 3060 3067 3072 3076 3081 3086 3088 3092 3095 3099 3101 3105 3110 3114 3117 3119 3118 3121 3127 3133 3137 3140 3140 3141 3144 3144 3145 3147 3149 3151 3152 3153 3158 3160 3161 3161 3159 3159 3160 3159 3158 3160 3162 3163 3164 3164 3166 3167 3168 3169 3170 3171 3172 3173 3174 3175 3176
2943 2947 2950 2954 2956 2959 2961 2964 2967 2971 2974 2979 2984 2987 2991 2997 3003 3009 3012 3014 3015 3014 3015 3019 3023 3028 3031 3034 3041 3050 3054 3056 3061 3067 3072 3077 3081 3085 3088 3092 3096 3099 3102 3106 3109 3112 3114 3116 3120 3127 3132 3134 3136 3138 3139 3141 3142 3142 3144 3147 3149 3151 3154 3157 3159 3159 3159 3158 3157 3158 3156 3154 3156 3157 3157 3160 3161 3163 3164 3165 3166 3167 3168 3169 3170 3171 3172 3173
2940 2944 2948 2951 2954 2957 2959 2962 2965 2969 2973 2978 2982 2986 2990 2996 3001 3006 3010 3011 3010 3008 3010 3015 3020 3024 3025 3030 3038 3045 3050 3055 3058 3062 3068 3073 3077 3083 3087 3090 3094 3098 3101 3104 3107 3111 3112 3115 3120 3126 3129 3131 3133 3135 3136 3138 3139 3140 3142 3145 3147 3151 3154 3156 3157 3157 3156 3156 3156 3157 3154 3148 3150 3152 3152 3157 3158 3158 3160 3162 3162 3164 3165 3167 3167 3168 3170 3171
2938 2942 2946 2949 2952 2955 2958 2961 2963 2968 2972 2975 2980 2984 2990 2995 2999 3003 3008 3009 3007 3004 3006 3011 3016 3020 3024 3031 3036 3042 3050 3055 3056 3059 3064 3070 3074 3079 3085 3089 3092 3095 3099 3103 3107 3110 3113 3116 3119 3123 3126 3128 3130 3131 3133 3135 3137 3138 3140 3143 3147 3151 3153 3155 3156 3154 3154 3154 3154 3159 3154 3143 3145 3148 3149 3153 3155 3155 3157 3158 3159 3162 3163 3164 3164 3166 3168 3169
2936 2939 2943 2947 2951 2954 2957 2959 2962 2967 2970 2973 2978 2984 2990 2994 2997 3002 3007 3008 3004 3000 3000 3004 3010 3014 3020 3027 3033 3042 3049 3051 3055 3059 3063 3069 3074 3077 3081 3086 3090 3094 3097 3102 3106 3108 3111 3114 3118 3121 3123 3125 3127 3128 3131 3134 3136 3137 3138 3142 3147 3149 3151 3153 3153 3153 3152 3152 3152 3156 3153 3143 3141 3142 3145 3149 3150 3152 3154 3154 3156 3159 3160 3161 3162 3164 3165 3166
2933 2936 2940 2945 2949 2952 2955 2957 2962 2966 2968 2972 2979 2984 2988 2993 2997 3000 3006 3007 3000 2996 2997 2998 3003 3009 3014 3021 3028 3034 3037 3042 3053 3059 3061 3067 3073 3076 3079 3081 3086 3091 3095 3100 3104 3105 3107 3111 3115 3118 3121 3123 3124 3125 3129 3132 3135 3135 3136 3141 3144 3146 3148 3149 3151 3151 3150 3150 3149 3150 3150 3146 3138 3134 3140 3145 3146 3147 3149 3151 3153 3156 3157 3159 3160 3161 3163 3164
2931 2934 2938 2942 2946 2950 2953 2957 2961 2963 2965 2971 2979 2983 2986 2992 2997 2999 3004 3002 2993 2991 2994 2995 2999 3005 3011 3018 3025 3028 3030 3036 3045 3051 3058 3065 3069 3073 3076 3078 3082 3087 3092 3096 3098 3100 3104 3108 3112 3115 3117 3118 3120 3124 3128 3131 3133 3134 3136 3139 3141 3143 3145 3146 3149 3149 3150 3150 3145 3143 3148 3144 3132 3128 3136 3140 3141 3142 3144 3147 3151 3153 3155 3156 3157 3159 3160 3162
2930 2932 2936 2939 2943 2946 2950 2955 2958 2959 2963 2971 2977 2980 2984 2991 2996 2998 3000 2995 2986 2986 2991 2994 2998 3002 3007 3014 3020 3025 3031 3036 3040 3047 3056 3061 3063 3068 3072 3077 3082 3085 3090 3095 3096 3099 3103 3107 3112 3114 3115 3115 3117 3123 3128 3130 3131 3132 3136 3139 3140 3143 3143 3145 3147 3148 3151 3148 3138 3138 3145 3141 3128 3125 3133 3135 3134 3137 3141 3145 3148 3150 3152 3153 3154 3156 3157 3159
2928 2931 2934 2937 2939 2942 2948 2953 2956 2958 2963 2970 2974 2978 2983 2988 2991 2994 2993 2987 2983 2986 2990 2993 2996 2998 3002 3007 3012 3019 3026 3032 3039 3047 3054 3056 3059 3065 3069 3075 3080 3082 3087 3092 3096 3098 3102 3106 3110 3111 3112 3113 3117 3123 3126 3129 3130 3132 3135 3137 3140 3142 3142 3145 3146 3148 3151 3143 3133 3136 3143 3143 3131 3121 3126 3130 3129 3133 3139 3142 3144 3147 3149 3150 3152 3153 3154 3156
2927 2930 2932 2935 2938 2941 2946 2950 2954 2958 2963 2967 2971 2975 2981 2984 2985 2986 2984 2981 2982 2986 2988 2990 2993 2996 2997 2999 3004 3013 3021 3029 3036 3040 3046 3052 3057 3060 3065 3070 3076 3080 3085 3089 3093 3096 3100 3103 3105 3105 3108 3111 3116 3121 3123 3126 3128 3131 3133 3135 3139 3142 3143 3145 3146 3148 3147 3137 3134 3137 3141 3145 3132 3117 3121 3127 3127 3131 3135 3137 3141 3143 3145 3147 3149 3150 3151 3152
2926 2928 2931 2933 2936 2940 2942 2946 2953 2957 2960 2964 2968 2971 2975 2977 2977 2976 2976 2979 2981 2982 2983 2986 2989 2993 2996 2997 3000 3005 3013 3022 3031 3036 3040 3046 3051 3055 3058 3062 3065 3072 3079 3083 3087 3092 3097 3099 3100 3103 3105 3108 3112 3116 3120 3123 3125 3128 3130 3133 3138 3142 3145 3145 3144 3145 3141 3135 3136 3137 3140 3139 3122 3112 3119 3123 3124 3129 3131 3134 3137 3139 3142 3144 3146 3147 3147 3148
2924 2927 2929 2931 2935 2938 2939 2944 2951 2955 2958 2961 2965 2968 2971 2970 2967 2969 2973 2975 2975 2976 2980 2984 2986 2990 2994 2996 2998 3003 3011 3018 3025 3032 3039 3043 3048 3053 3057 3060 3063 3065 3069 3076 3083 3089 3095 3098 3098 3099 3101 3104 3107 3110 3113 3116 3120 3124 3126 3130 3134 3139 3143 3143 3142 3142 3136 3132 3134 3137 3140 3130 3114 3112 3117 3118 3122 3126 3127 3131 3133 3135 3138 3140 3142 3143 3144 3145
2922 2925 2927 2929 2933 2935 2937 2943 2948 2952 2956 2959 2962 2965 2965 2964 2963 2966 2970 2972 2973 2975 2978 2981 2984 2989 2992 2992 2994 2999 3009 3018 3024 3030 3036 3041 3046 3050 3054 3059 3064 3066 3067 3074 3080 3084 3090 3092 3092 3093 3096 3100 3104 3107 3110 3113 3117 3120 3122 3125 3126 3128 3131 3133 3134 3133 3130 3129 3132 3136 3135 3121 3111 3112 3113 3114 3120 3122 3123 3127 3129 3131 3134 3136 3138 3140 3141 3142
2920 2922 2924 2927 2930 2932 2936 2941 2945 2949 2953 2956 2959 2959 2957 2959 2961 2963 2965 2968 2972 2974 2977 2981 2983 2986 2990 2992 2994 2996 3001 3011 3021 3028 3031 3035 3039 3043 3047 3051 3058 3061 3062 3068 3075 3080 3084 3086 3087 3091 3095 3098 3102 3106 3109 3112 3115 3117 3120 3123 3122 3122 3124 3126 3128 3127 3127 3130 3129 3129 3122 3110 3108 3111 3111 3114 3117 3117 3120 3122 3124 3127 3130 3133 3134 3136 3138 3139
2916 2918 2921 2923 2927 2932 2936 2939 2942 2947 2950 2954 2956 2954 2953 2956 2959 2960 2962 2965 2967 2970 2975 2979 2981 2982 2985 2989 2993 2996 3000 3007 3015 3023 3029 3033 3037 3039 3042 3046 3051 3054 3056 3061 3067 3073 3080 3084 3086 3089 3093 3097 3101 3104 3106 3108 3112 3115 3117 3117 3118 3121 3124 3125 3126 3125 3129 3128 3122 3119 3113 3107 3109 3109 3108 3113 3114 3115 3118 3118 3120 3123 3125 3128 3130 3132 3135 3136
2912 2914 2916 2919 2925 2931 2934 2936 2941 2945 2948 2951 2952 2951 2952 2955 2956 2958 2961 2963 2965 2967 2969 2973 2977 2979 2980 2984 2988 2992 3000 3009 3015 3020 3026 3032 3035 3036 3039 3044 3048 3051 3054 3059 3063 3067 3074 3081 3084 3087 3090 3095 3099 3103 3105 3107 3109 3110 3111 3112 3116 3122 3124 3124 3125 3125 3127 3125 3117 3112 3109 3108 3111 3106 3104 3109 3111 3113 3115 3116 3119 3120 3121 3124 3126 3129 3131 3132
2908 2910 2911 2915 2924 2929 2932 2935 2938 2942 2945 2948 2948 2949 2951 2953 2954 2956 2958 2960 2964 2966 2966 2967 2972 2977 2978 2979 2984 2989 2996 3005 3013 3018 3023 3029 3031 3031 3034 3038 3043 3048 3052 3058 3062 3066 3071 3078 3084 3086 3089 3093 3097 3099 3101 3103 3105 3105 3106 3109 3114 3118 3118 3119 3121 3120 3122 3121 3114 3109 3107 3106 3105 3102 3102 3107 3109 3111 3113 3114 3116 3118 3119 3121 3122 3125 3127 3128
2904 2905 2905 2913 2922 2926 2928 2931 2935 2939 2941 2942 2943 2945 2948 2950 2953 2955 2956 2958 2961 2963 2965 2965 2966 2973 2977 2976 2978 2984 2991 2997 3003 3010 3015 3019 3022 3025 3028 3032 3038 3044 3050 3055 3060 3064 3068 3075 3081 3084 3087 3091 3093 3094 3094 3095 3099 3103 3106 3109 3110 3112 3113 3114 3115 3114 3115 3116 3112 3108 3105 3099 3096 3098 3102 3105 3108 3110 3111 3112 3114 3116 3117 3118 3119 3121 3122 3123
2901 2899 2900 2910 2920 2922 2925 2929 2932 2934 2934 2936 2939 2941 2945 2948 2950 2953 2955 2957 2958 2959 2961 2963 2964 2967 2973 2978 2980 2983 2990 2995 2999 3003 3007 3010 3014 3019 3024 3029 3034 3040 3048 3054 3058 3062 3067 3071 3077 3082 3086 3088 3087 3086 3086 3088 3092 3096 3099 3103 3106 3109 3111 3112 3112 3111 3111 3112 3111 3109 3102 3092 3092 3098 3100 3102 3106 3108 3110 3111 3113 3114 3115 3115 3117 3118 3119 3120
2896 2892 2893 2906 2915 2918 2922 2924 2925 2928 2929 2932 2936 2938 2941 2945 2947 2951 2954 2955 2957 2958 2959 2962 2964 2965 2968 2975 2980 2983 2990 2996 3000 3003 3005 3007 3010 3014 3019 3024 3030 3036 3043 3049 3054 3059 3064 3068 3072 3077 3080 3081 3081 3083 3086 3089 3090 3090 3092 3096 3098 3102 3106 3108 3109 3107 3108 3108 3107 3107 3098 3086 3090 3098 3098 3101 3105 3105 3108 3109 3110 3113 3113 3113 3114 3115 3116 3116
2890 2886 2890 2903 2910 2911 2915 2918 2920 2924 2925 2927 2932 2935 2938 2941 2944 2948 2952 2955 2956 2956 2958 2960 2963 2966 2968 2970 2976 2981 2987 2992 2997 3001 3002 3004 3007 3009 3014 3020 3028 3035 3040 3045 3050 3056 3062 3066 3071 3075 3077 3079 3082 3085 3087 3089 3091 3092 3093 3093 3095 3099 3100 3101 3102 3101 3105 3106 3104 3107 3098 3082 3085 3096 3098 3100 3103 3103 3105 3106 3107 3109 3110 3111 3112 3112 3112 3112
2883 2883 2889 2898 2902 2906 2909 2911 2915 2919 2920 2925 2932 2934 2936 2939 2943 2946 2949 2953 2954 2954 2956 2959 2962 2966 2969 2971 2974 2979 2984 2989 2994 2997 2999 3003 3007 3010 3015 3019 3026 3035 3039 3041 3047 3054 3060 3065 3069 3075 3079 3082 3083 3085 3086 3089 3090 3090 3089 3089 3092 3095 3095 3098 3100 3100 3103 3102 3100 3106 3098 3080 3082 3094 3097 3099 3101 3101 3103 3105 3105 3107 3107 3108 3108 3108 3108 3109
2879 2881 2886 2890 2895 2899 2899 2900 2907 2912 2917 2924 2930 2930 2933 2938 2942 2944 2946 2948 2952 2954 2955 2958 2962 2965 2967 2970 2973 2976 2981 2987 2992 2996 2999 3002 3006 3011 3016 3020 3025 3031 3034 3036 3042 3048 3056 3061 3065 3072 3080 3083 3084 3084 3084 3084 3083 3081 3082 3087 3090 3091 3095 3099 3099 3100 3101 3097 3098 3103 3093 3078 3081 3090 3093 3097 3099 3098 3101 3103 3103 3105 3105 3105 3105 3104 3105 3105
2876 2878 2881 2884 2888 2890 2892 2895 2902 2908 2913 2920 2924 2926 2930 2934 2938 2943 2945 2946 2950 2953 2953 2956 2961 2964 2966 2970 2973 2976 2979 2982 2987 2993 2998 3002 3007 3011 3015 3021 3026 3029 3032 3037 3043 3047 3053 3056 3058 3063 3070 3073 3073 3071 3068 3068 3072 3076 3080 3083 3085 3088 3092 3093 3096 3100 3097 3090 3093 3094 3082 3074 3080 3087 3089 3094 3096 3096 3098 3100 3100 3102 3102 3102 3102 3102 3102 3102
2872 2874 2876 2879 2881 2884 2888 2894 2899 2902 2907 2914 2919 2922 2925 2930 2936 2941 2943 2944 2946 2950 2952 2954 2958 2963 2966 2970 2974 2977 2980 2982 2985 2990 2995 3000 3005 3009 3014 3020 3026 3030 3034 3039 3044 3048 3052 3054 3054 3055 3056 3057 3057 3056 3057 3061 3067 3071 3073 3076 3080 3084 3087 3090 3095 3093 3085 3082 3085 3081 3074 3074 3078 3082 3087 3090 3093 3095 3097 3098 3098 3099 3099 3100 3100 3099 3099 3100
2866 2866 2868 2871 2874 2878 2882 2888 2894 2898 2902 2909 2913 2915 2920 2926 2932 2936 2940 2942 2944 2946 2950 2953 2956 2959 2962 2966 2972 2976 2979 2982 2986 2989 2994 3000 3004 3009 3015 3021 3025 3029 3033 3038 3041 3045 3048 3049 3050 3051 3052 3053 3054 3056 3058 3062 3065 3066 3068 3072 3076 3080 3084 3087 3086 3078 3076 3081 3078 3071 3073 3074 3071 3077 3085 3087 3090 3093 3093 3095 3096 3096 3096 3097 3097 3097 3098 3098
2858 2860 2862 2864 2865 2869 2874 2880 2888 2895 2901 2906 2909 2911 2916 2921 2925 2929 2934 2940 2943 2944 2947 2950 2953 2956 2959 2962 2966 2971 2977 2981 2985 2989 2993 2997 3001 3007 3013 3019 3024 3027 3031 3036 3038 3039 3041 3041 3043 3047 3051 3053 3055 3057 3059 3062 3064 3066 3068 3069 3071 3075 3077 3078 3074 3070 3074 3077 3069 3066 3072 3070 3066 3073 3079 3082 3087 3088 3088 3090 3092 3093 3094 3094 3094 3095 3095 3096
2852 2854 2857 2859 2859 2862 2869 2878 2887 2893 2898 2903 2906 2908 2911 2916 2921 2925 2930 2936 2942 2943 2944 2946 2949 2953 2959 2962 2965 2969 2973 2975 2979 2982 2985 2990 2995 3001 3006 3013 3018 3023 3027 3030 3033 3036 3038 3038 3040 3044 3048 3051 3054 3057 3058 3060 3062 3064 3066 3067 3068 3069 3070 3069 3066 3067 3073 3073 3067 3068 3070 3066 3066 3070 3071 3076 3083 3083 3083 3085 3087 3090 3091 3091 3091 3092 3092 3093
2843 2846 2850 2854 2856 2860 2867 2874 2881 2888 2894 2899 2903 2906 2910 2915 2919 2923 2927 2931 2936 2939 2941 2943 2946 2951 2957 2961 2963 2965 2965 2966 2969 2973 2977 2983 2989 2994 2999 3003 3008 3016 3024 3028 3031 3035 3037 3038 3041 3044 3048 3051 3053 3055 3057 3060 3061 3063 3065 3066 3066 3065 3064 3064 3063 3067 3072 3068 3062 3068 3069 3061 3060 3066 3068 3072 3077 3078 3081 3083 3084 3088 3089 3088 3089 3089 3089 3090
2837 2842 2847 2849 2852 2857 2862 2867 2873 2881 2887 2892 2897 2902 2908 2913 2918 2921 2924 2927 2931 2934 2935 2939 2945 2951 2956 2959 2960 2961 2964 2969 2972 2975 2978 2982 2987 2991 2996 3000 3005 3012 3020 3026 3031 3034 3036 3039 3040 3044 3048 3050 3052 3055 3058 3059 3062 3064 3063 3060 3058 3058 3058 3058 3059 3061 3063 3058 3059 3068 3064 3051 3050 3059 3065 3068 3072 3074 3077 3079 3082 3085 3085 3085 3086 3086 3087 3087
2831 2837 2841 2844 2848 2852 2858 2863 2869 2874 2878 2884 2892 2899 2904 2911 2917 2919 2921 2925 2930 2933 2935 2939 2945 2949 2952 2954 2956 2960 2968 2974 2977 2980 2984 2987 2991 2995 2998 3002 3007 3011 3017 3024 3030 3034 3037 3038 3040 3043 3047 3049 3053 3055 3057 3060 3063 3061 3053 3049 3050 3053 3054 3055 3054 3053 3053 3054 3057 3058 3049 3042 3048 3056 3059 3062 3067 3069 3071 3075 3078 3080 3081 3082 3082 3083 3083 3084